Content
SEND FEEDBACK

Daily
Averages
Monthly
Summary
United States of America

GLEN CANYON CITY, UTAH


Home > North America > United States > Utah
Elevation: 4133 feet     Latitude: 37 05N     Longitude: 111 40W

WEATHER
 
SELECT A DAY
Number of Records: 194,608;   Date Range: 1/1/95 - 7/20/14
 
SHARE

PRINT THIS DATA

[ ← Previous Day ]
WEATHER ALMANAC - FEBRUARY 22, 2013
[ Next Day → ]
[ °C ]   °F
Weather ElementAverageHighLow
Temperature38.3 °F46.9 °F (3:53 pm)30 °F (5:53 am)
Dewpoint6 °F10.9 °F (1:53 am)1.9 °F (4:53 am)
Humidity26.8 %40 % (1:53 am)18 % (1:53 pm)
Barometer30.02 in30.09 in (8:53 pm)29.93 in (1:53 am)
Wind Speed6 mph12.7 mph (4:53 pm)
Wind Gust18.4 mph (4:53 pm)
Weather ElementAverage
Visibility10 mi
Wind DirectionWSW (234.3 °)

Weather ElementTotal
Precipitation---
Heating Degree Days26.6 (Base 65)
Averaged from 23 records on February 22, 2013
WEATHER CONDITIONS BREAKOUT
WIND DIRECTION BREAKOUT
WEATHER BY HOUR - FEBRUARY 22, 2013
[ °C ]   °F
Local TimeTemperatureDewpointHumidityBarometerVisibilityWind DirectionWind SpeedGust SpeedPrecipitationEventsConditions
1:53 AM33.1 °F10.9 °F40 %29.93 in10.0 miWest (260°)5.8 mphClear
2:53 AM32.0 °F8.1 °F37 %29.94 in10.0 miWest (270°)4.6 mphClear
3:53 AM30.9 °F3.0 °F31 %29.94 in10.0 miWest (280°)5.8 mphClear
4:53 AM30.9 °F1.9 °F29 %29.96 in10.0 miWNW (290°)5.8 mphClear
5:53 AM30.0 °F1.9 °F30 %29.99 in10.0 miWest (280°)5.8 mphClear
6:53 AM30.0 °F3.0 °F32 %30.01 in10.0 miWNW (290°)6.9 mphClear
7:53 AM32.0 °F3.0 °F29 %30.02 in10.0 miWest (270°)3.5 mphClear
8:53 AM34.0 °F3.0 °F27 %30.05 in10.0 miWNW (300°)3.5 mphOvercast
9:53 AM36.0 °F5.0 °F27 %30.06 in10.0 miVariable5.8 mphClear
10:53 AM37.9 °F5.0 °F25 %30.06 in10.0 miNorth (360°)3.5 mphClear
11:53 AM41.0 °F5.0 °F23 %30.07 in10.0 miNNW (340°)5.8 mphClear
12:53 PM44.1 °F5.0 °F20 %30.04 in10.0 miENE (70°)5.8 mphClear
1:53 PM45.0 °F3.9 °F18 %30.01 in10.0 miCalmClear
2:53 PM46.0 °F5.0 °F19 %29.99 in10.0 miVariable4.6 mphClear
3:53 PM46.9 °F6.1 °F19 %30.00 in10.0 miNNW (340°)8.1 mphClear
4:53 PM46.9 °F7.0 °F20 %30.00 in10.0 miWNW (290°)12.7 mph18.4 mphClear
5:53 PM45.0 °F7.0 °F21 %30.03 in10.0 miNW (310°)11.5 mph17.3 mphClear
6:53 PM44.1 °F9.0 °F24 %30.06 in10.0 miNW (320°)12.7 mphClear
7:53 PM42.1 °F9.0 °F26 %30.06 in10.0 miWNW (290°)6.9 mphClear
8:53 PM39.9 °F9.0 °F28 %30.09 in10.0 miWest (280°)5.8 mphClear
9:53 PM39.9 °F9.0 °F28 %30.09 in10.0 miWNW (290°)9.2 mphClear
10:53 PM37.9 °F9.0 °F30 %30.09 in10.0 miWest (260°)3.5 mphClear
11:53 PM36.0 °F10.0 °F34 %30.08 in10.0 miCalmClear
Hourly data recorded from KPGA, located miles away from Glen Canyon City, Utah







STORIES FROM OUR PARTNERS